Location: Newark
(39.6172°N, 96.8533°W)
Time: 15:17:16
(UTC+00:00)

Envisat - Pass Details

Date: 03 February 2020
Orbit: 764 x 766 km, 98.1° (Epoch: 17 February)

Event Time Altitude Azimuth Distance (km) Brightness Sun altitude
Rises 01:51:04 0° 221° (SW) 3,220 6.9 -23.9°
Reaches altitude 10° 01:55:38 10° 259° (W) 2,301 6.5 -24.8°
Maximum altitude 01:56:39 11° 271° (W) 2,263 6.5 -25.0°
Drops below altitude 10° 01:57:41 10° 283° (WNW) 2,304 6.4 -25.2°
Sets 02:02:18 0° 322° (NW) 3,238 6.7 -26.1°
